Regional Weather Roundup
Issued by NWS

Home | Current Version | Previous Version | Text Only | Print | Product List | Glossary On
Versions: 1 2 3 4 5 6 7 8 9 10 11 12 13 14 15 16 17 18 19 20 21 22 23 24 25 26 27 28 29 30 31 32 33 34 35 36 37 38 39 40 41 42 43 44 45 46 47 48 49 50
000
ASUS46 KLOX 050313
RWRCA

SOUTHERN CALIFORNIA WEATHER ROUNDUP
NATIONAL WEATHER SERVICE OXNARD CALIFORNIA
800 PM PDT FRI SEP 04 2015

NOTE: "FAIR" INDICATES FEW OR NO CLOUDS BELOW 12,000 FEET WITH NO
SIGNIFICANT WEATHER AND/OR OBSTRUCTIONS TO VISIBILITY.

  -  STATIONS PRECEEDED BY AN ASTERISK (*) ARE NOT NWS OR FAA
     STATIONS AND ARE NOT SUBJECT TO NWS AND FAA QUALITY CONTROL.

CAZ041-042-087-050400-
LA AND ORANGE COUNTY COASTAL AREAS


CITY           SKY/WX    TMP DP  RH WIND       PRES   REMARKS
L.A. DOWNTOWN  CLEAR     71  57  61 W5        29.83S
L.A. AIRPORT   PTCLDY    70  59  68 W10       29.84S
LONG BEACH     CLEAR     72  57  59 NW9       29.83S

CITY           SKY/WX    TMP DP  RH WIND       PRES   REMARKS
AVALON           N/A     68 N/A N/A S1          N/A
FULLERTON      CLEAR     71  59  65 SW6       29.82S
*GETTY CENTER    N/A     63  54  72 W3          N/A
HAWTHORNE      CLEAR     72  58  61 W6        29.83F
*LEO CARRILLO    N/A     67  56  68 SW5G18      N/A
*LOS ALAMITOS  PTCLDY    69  59  72 S5        29.83S
*REDONDO BEACH   N/A     68  60  74 CALM      29.84S
SANTA ANA      CLEAR     69  58  67 S7        29.84S
STA MONICA APT CLEAR     70  58  65 W5        29.84S
TORRANCE       CLEAR     70  59  68 W12       29.84S
*UCLA            N/A     68  55  64 W3        29.81S

$$

CAZ547-548-048-050400-
LA COUNTY VALLEYS AND INLAND EMPIRE


CITY           SKY/WX    TMP DP  RH WIND       PRES   REMARKS
BURBANK        CLEAR     71  54  54 S6        29.84R
VAN NUYS       CLEAR     71  54  54 SE5       29.84R

CITY           SKY/WX    TMP DP  RH WIND       PRES   REMARKS
CORONA AIRPORT CLEAR     70  56  61 W10       29.83S
*CHATSWORTH      N/A     68  57  67 NW3       29.84R
CHINO          CLEAR     71  56  58 W10       29.84S
MARCH AFB      CLEAR     70  55  60 NW10      29.85R
*NORTHRIDGE      N/A     70  54  56 W3G9        N/A
ONTARIO        CLEAR     71  55  56 W10       29.83S
*PASADENA        N/A     70  59  68 E3          N/A
POMONA         CLEAR     70  55  60 W12       29.87S
RIVERSIDE      CLEAR     71  55  56 W9        29.83S
SAN BERNARDINO CLEAR     72  50  46 SW12      29.85R
*SAN GABRIEL     N/A     72  58  62 W6        29.89S
*SAN RAFAEL HI   N/A     64  49  57 E6          N/A
*SAUGUS          N/A     74  56  53 SW13        N/A
*WHITEMAN AP   NOT AVBL
*WHITTIER HILL   N/A     68  58  70 SW3         N/A
*WOODLAND HILL   N/A     70  55  60 W3          N/A

$$

CAZ054-055-050400-
LA AND SAN BERNARDINO COUNTY MOUNTAINS


CITY           SKY/WX    TMP DP  RH WIND       PRES   REMARKS
*BIG BEAR AIRP CLEAR     54  39  58 CALM      30.06F
*CHILAO          N/A     56  45  66 S6          N/A
SANDBERG       CLEAR     59  51  75 S8        29.98R
*WARM SPRINGS    N/A     57  53  85 W8          N/A

$$

CAZ028-029-059-060-099-050400-
ANTELOPE VALLEY AND SURROUNDING AREAS


CITY           SKY/WX    TMP DP  RH WIND       PRES   REMARKS
LANCASTER      CLEAR     68  53  58 W24       29.85R
PALMDALE       CLEAR     68  51  54 W15       29.86R
*POPPY PARK      N/A     66  53  63 SW15G29     N/A

CITY           SKY/WX    TMP DP  RH WIND       PRES   REMARKS
29 PALMS       CLEAR     82  35  18 SW14      29.83R
BARSTOW/DAGGET CLEAR     82  27  13 W20       29.76R
BISHOP         CLEAR     74  16  11 N14       29.76R
CHINA LAKE     CLEAR     78  33  19 SW9       29.75R
EDWARDS AFB    CLEAR     71  49  45 SW20      29.81R
NEEDLES        PTCLDY    96  42  15 SW16      29.69R HX  92
VICTORVILLE    CLEAR     72  46  40 S12G21    29.87R

$$

CAZ039-040-050400-
VENTURA AND SANTA BARBARA COUNTY COAST


CITY           SKY/WX    TMP DP  RH WIND       PRES   REMARKS
CAMARILLO      CLEAR     70  57  63 W12       29.84S
NWS OXNARD       N/A     68  58  70 CALM      29.83F
OXNARD AIRPORT CLEAR     68  57  68 W9        29.84S
*POINT MUGU    CLEAR     70  58  65 NW9       29.84F
SBA APT/GOLETA CLEAR     69  55  60 SW6       29.83S
*SANTA BARBARA   N/A     72  56  57 CALM      29.91R
*VENTURA         N/A     68  57  66 CALM      29.44S

$$

CAZ044-045-050400-
VENTURA COUNTY VALLEYS


CITY           SKY/WX    TMP DP  RH WIND       PRES   REMARKS
*SIMI VALLEY     N/A     65  58  77 CALM      29.81R
*OJAI            N/A     66  57  74 CALM      29.79F
*FILLMORE        N/A     68  57  68 W14       29.75S

$$

CAZ053-050400-
VENTURA COUNTY MOUNTAINS


CITY           SKY/WX    TMP DP  RH WIND       PRES   REMARKS
*LOCKWOOD VLY    N/A     59  45  58 MISG        N/A
*ROSE VALLEY     N/A     59  57  94 MISG        N/A

$$

CAZ034-035-036-050400-
CENTRAL COAST AND SANTA YNEZ VALLEY


CITY           SKY/WX    TMP DP  RH WIND       PRES   REMARKS
SAN LUIS OBISP CLEAR     61  53  75 NW9       29.88R
SANTA MARIA    CLEAR     61  54  77 W13       29.89R

CITY           SKY/WX    TMP DP  RH WIND       PRES   REMARKS
*CAL POLY SLO    N/A     61  55  82 W2G9        N/A
*LOMPOC        CLEAR     61  50  67 W8        29.90S
*PISMO BEACH     N/A     63  54  73 CALM      29.88R
*SANTA YNEZ    FAIR      61  50  67 W9        29.88R

$$

CAZ037-038-051-050400-
SAN LUIS OBISPO COUNTY INTERIOR AND CUYAMA VALLEY


CITY           SKY/WX    TMP DP  RH WIND       PRES   REMARKS
*CUYAMA          N/A     66  44  44 W9        29.78R
PASO ROBLES    CLEAR     67  45  45 W12       29.85R

$$

CAZ032-033-061-050400-
SOUTHERN DESERTS


CITY           SKY/WX    TMP DP  RH WIND       PRES   REMARKS
BLYTHE         PTCLDY    95  56  26 S15       29.67R HX  93
IMPERIAL       PTCLDY    95  59  30 SE9       29.67R HX  94
PALM SPRINGS   CLEAR     88  43  20 NW18G24   29.70S
THERMAL        CLEAR     90  41  18 N7        29.64R

$$

ELSEWHERE ACROSS THE WESTERN UNITED STATES AND MEXICO


CITY           SKY/WX    TMP DP  RH WIND       PRES   REMARKS
DEATH VALLEY,    N/A     96  37  13 S7          N/A  HX  91
DENVER, CO     LGT RAIN  72  50  45 NW7       29.98R
GRAND CANYON,  PTCLDY    64  44  48 SW10      30.11R
HONOLULU, HI   PTSUNNY   84  75  74 VRB3      29.80S HX  92
KAHULUI, MAUI  MOSUNNY   86  72  62 NE20      29.81S HX  92
LAKE TAHOE, CA CLEAR     54  19  25 VRB5      29.97R
LAS VEGAS, NV  PTCLDY    90  27  10 S13G21    29.68R
MAMMOTH LAKES, FAIR      54  32  43 W10G17    30.00R
MEXICO CITY, M MOCLDY    63  55  77 N3        30.31R
PHOENIX, AZ    CLOUDY    90  62  39 S13       29.80R HX  90
PORTLAND, OR   PTCLDY    63  46  54 W13       29.96R
RENO, NV       CLEAR     64  14  14 W12G20    29.88R
SALT LAKE CITY PTCLDY    81  33  17 S16       29.74R
SAN DIEGO, CA  PTCLDY    70  58  65 W6        29.86R
SAN FRANCISCO, MOCLDY    60  51  72 W23G31    29.87F
SAN JOSE, CA   MOCLDY    63  46  54 W7        29.89S
SEATTLE, WA    MOCLDY    59  49  69 NE5       30.00R
TIJUANA, MEX   PTCLDY    66  55  68 W9        29.88R

$$

STATION/POSITION TIME  TEMP    WIND        PRES    VSBY  WAVE
                       AIR SEA DIR/SP/G                  HT/PER
                 (UTC) (F)     (DEG/KT/KT) (MB)    (MI)  (FT/S)
POINT ARGUELLO B NOT AVBL
WEST SANTA BARBA 0250   63 65  330/ 21/ 27 1010.3R         8/10
POINT CONCEPTION NOT AVBL
EAST SANTA BARBA 0300   69 70  280/ 10/ 14 1010.8R
SANTA MONICA BAY 0250   68 72  320/ 10/ 12 1010.4S         4/19


USA.gov is the U.S. government's official web portal to all federal, state and local government web resources and services.